www.pogodaiklimat.ru
ПОГОДА в Санта-Круз-де-Тенерифе

Архив погоды в Санта-Круз-де-Тенерифе (Канарские Острова)

Время
(UTC), дата
08 22.11
09 22.11
10 22.11
11 22.11
12 22.11
13 22.11
14 22.11
15 22.11
16 22.11
17 22.11
18 22.11
19 22.11
20 22.11
21 22.11
22 22.11
23 22.11
00 23.11
01 23.11
02 23.11
03 23.11
04 23.11
05 23.11
06 23.11
07 23.11
08 23.11
09 23.11
10 23.11
11 23.11
12 23.11
13 23.11
14 23.11
15 23.11
16 23.11
17 23.11
18 23.11
19 23.11
20 23.11
21 23.11
22 23.11
23 23.11
00 24.11
01 24.11
02 24.11
03 24.11
04 24.11
05 24.11
06 24.11
07 24.11
08 24.11
09 24.11
10 24.11
11 24.11
12 24.11
13 24.11
14 24.11
15 24.11
16 24.11
17 24.11
18 24.11
19 24.11
20 24.11
21 24.11
22 24.11
23 24.11
00 25.11
01 25.11
02 25.11
03 25.11
04 25.11
05 25.11
06 25.11
07 25.11
08 25.11
09 25.11
10 25.11
11 25.11
12 25.11
13 25.11
14 25.11
15 25.11
16 25.11
17 25.11
18 25.11
19 25.11
20 25.11
21 25.11
22 25.11
23 25.11
00 26.11
01 26.11
02 26.11
03 26.11
04 26.11
05 26.11
06 26.11
07 26.11
08 26.11
09 26.11
10 26.11
11 26.11
12 26.11
13 26.11
14 26.11
15 26.11
16 26.11
17 26.11
18 26.11
19 26.11
20 26.11
21 26.11
22 26.11
23 26.11
00 27.11
01 27.11
02 27.11
03 27.11
04 27.11
05 27.11
06 27.11
07 27.11
08 27.11
09 27.11
10 27.11
11 27.11
12 27.11
13 27.11
14 27.11
15 27.11
16 27.11
17 27.11
18 27.11
19 27.11
20 27.11
21 27.11
22 27.11
23 27.11
00 28.11
01 28.11
02 28.11
03 28.11
04 28.11
05 28.11
Ветер
(напр.,м/с)
Видим. Явления Облачность Т
(С)
Тd
(С)
f
(%)
Тe
(С)
Тes
(С)
Комфортность P
(гПа)
Po
(гПа)
Тmin
(С)
Tmax
(С)
R
(мм)
R24
(мм)
S
(см)
З 1 4000 м н/о +19.8 +16.4 81 +23 +23 комфорт 1014.8 1010.6
З 2 9000 м [макс. диам. градин 0 мм] 8/1 300 м
[Sc Ac As Cs]
+20.7 +16.1 75 +25 +25 комфорт 1015.5 1011.3
В 1 20 км н/о +22.4 +16.7 70 +27 +27 душно 1015.9 1011.7
ЮВ 2 20 км н/о +23.9 +16.9 65 +28 +28 душно 1016.2 1012.0
ЮВ 2 10 км [макс. диам. градин 0 мм] 4/3 600 м
[Cu Sc Ac cast Cs]
+24.9 +17.1 62 +29 +34 душно 1015.6 1011.4
ЮВ 3 20 км н/о +24.2 +18.8 72 +29 +29 душно 1015.0 1010.8
Ю 3 20 км н/о +23.6 +18.7 74 +28 +28 душно 1014.8 1010.6
ЮВ 2 20 км н/о +23.5 +18.6 74 +28 +28 душно 1014.0 1009.8
ЮВ 2 18 км н/о +22.6 +19.4 82 +29 +29 очень
душно
1014.5 1010.3
В 2 16 км н/о +22.2 +19.6 85 +28 +28 душно 1014.5 1010.3
В 2 17 км н/о +21.8 +19.4 86 +27 +27 душно 1014.7 1010.5 +24.9
В 2 18 км н/о +21.7 +19.3 86 +27 +27 душно 1015.2 1011.0
В 1 15 км н/о +21.6 +19.3 87 +27 +27 душно 1015.6 1011.4
В 2 14 км н/о +21.4 +19.5 89 +26 +26 душно 1016.3 1012.1
В 2 19 км слаб. дождь н/о +21.4 +19.1 87 +26 +26 душно 1016.8 1012.6
В 1 20 км в посл. час дождь н/о +21.1 +18.8 87 +25 +25 комфорт 1016.8 1012.6
З 1 19 км дымка н/о +21.0 +18.4 85 +27 +27 душно 1016.7 1012.5 0.0
СВ 1 19 км н/о +20.6 +18.0 85 +26 +26 душно 1016.5 1012.3
СВ 1 20 км н/о +20.7 +18.5 87 +26 +26 душно 1016.2 1012.0
З 1 19 км н/о +20.2 +17.6 85 +24 +24 комфорт 1016.4 1012.2
ЮЗ 1 19 км н/о +20.3 +17.5 84 +25 +25 комфорт 1016.2 1012.0
З 1 19 км н/о +20.0 +17.0 83 +24 +24 комфорт 1016.1 1011.9
СЗ 1 18 км дымка н/о +19.7 +16.7 83 +23 +23 комфорт 1016.0 1011.8 +19.6 0.0 0.0
СЗ 1 19 км н/о +19.3 +16.1 82 +23 +23 комфорт 1016.7 1012.5
З 2 20 км н/о +19.5 +16.0 80 +22 +22 комфорт 1017.4 1013.2
С 1 9000 м [макс. диам. градин 0 мм] 9/3 600 м
[Sc Ac trans]
+21.3 +17.1 77 +25 +26 комфорт 1017.9 1013.7
В 1 20 км н/о +21.9 +18.1 79 +27 +27 душно 1018.7 1014.5
В 2 20 км н/о +22.0 +18.4 80 +27 +27 душно 1018.7 1014.5
В 2 9000 м дымка [макс. диам. градин 0 мм] 9/1 600 м
[Cu med, cong Ac As Ci fib]
+22.2 +18.6 80 +27 +32 душно 1018.1 1013.9
В 2 20 км н/о +22.6 +18.8 79 +28 +28 душно 1017.8 1013.6
В 2 17 км н/о +22.4 +19.0 81 +28 +28 душно 1017.5 1013.3
ЮВ 2 19 км н/о +23.2 +18.7 76 +29 +29 душно 1016.8 1012.6
В 2 18 км н/о +22.3 +18.5 79 +28 +28 душно 1017.2 1013.0
ЮВ 2 17 км н/о +21.9 +18.5 81 +27 +27 душно 1017.6 1013.4
В 2 16 км н/о +21.5 +18.1 81 +26 +26 душно 1017.7 1013.5 +23.3
В 2 15 км н/о +21.3 +18.7 85 +26 +26 душно 1018.1 1013.9
В 2 14 км н/о +21.2 +18.4 84 +25 +25 комфорт 1019.0 1014.8
В 2 13 км н/о +21.2 +18.6 85 +26 +26 душно 1019.6 1015.4
СВ 2 14 км н/о +21.0 +18.4 85 +26 +26 душно 1019.6 1015.4
В 2 16 км н/о +21.1 +18.3 84 +25 +25 комфорт 1019.9 1015.7
В 1 20 км н/о +20.6 +17.8 84 +25 +25 комфорт 1020.0 1015.8
В 1 19 км н/о +20.4 +18.0 86 +25 +25 комфорт 1019.3 1015.1
С 2 20 км н/о +20.1 +17.7 86 +24 +24 комфорт 1018.9 1014.7
З 2 20 км н/о +19.8 +16.1 79 +23 +23 комфорт 1019.2 1015.0
З 1 20 км н/о +19.3 +14.8 75 +22 +22 комфорт 1019.0 1014.8
З 2 20 км н/о +18.8 +14.3 75 +21 +21 комфорт 1018.8 1014.5
З 2 20 км н/о +18.8 +13.6 72 +20 +20 тепло 1019.0 1014.7 +18.7
З 2 20 км н/о +18.5 +12.9 70 +20 +20 тепло 1019.3 1015.0
З 3 20 км н/о +18.5 +12.9 70 +19 +19 по сезону 1019.6 1015.3
З 1 20 км н/о +20.8 +15.1 70 +25 +25 комфорт 1020.1 1015.9
В 2 20 км н/о +21.7 +17.7 78 +26 +26 душно 1020.6 1016.4
В 2 20 км н/о +22.4 +17.7 75 +27 +27 душно 1020.6 1016.4
В 3 20 км [макс. диам. градин 0 мм] 9/3 600 м
[Sc Ac As Cs]
+22.6 +17.3 72 +27 +30 душно 1020.1 1015.9
В 3 20 км н/о +22.8 +17.7 73 +28 +28 душно 1019.4 1015.2
В 3 20 км н/о +23.1 +17.8 72 +29 +29 очень
душно
1018.7 1014.5
В 2 20 км н/о +23.5 +17.9 71 +28 +28 душно 1018.1 1013.9
В 4 20 км н/о +22.8 +17.5 72 +28 +28 душно 1017.8 1013.6
В 4 20 км н/о +21.7 +17.1 75 +26 +26 душно 1018.5 1014.3
В 3 20 км н/о +21.2 +16.6 75 +25 +25 комфорт 1019.1 1014.9 +23.6
В 2 20 км н/о +20.9 +16.5 76 +25 +25 комфорт 1019.5 1015.3
В 1 20 км н/о +20.7 +16.9 79 +25 +25 комфорт 1019.8 1015.6
В 2 20 км н/о +20.8 +17.0 79 +25 +25 комфорт 1020.1 1015.9
В 3 17 км н/о +20.6 +17.2 81 +25 +25 комфорт 1019.7 1015.5
В 3 20 км в посл. час дождь н/о +20.4 +17.2 82 +24 +24 комфорт 1019.9 1015.7
В 4 20 км дымка н/о +20.7 +17.5 82 +25 +25 комфорт 1019.6 1015.4 0.4
В 5 20 км в посл. час дождь н/о +20.4 +17.4 83 +24 +24 комфорт 1018.8 1014.6
В 4 20 км н/о +20.4 +17.2 82 +24 +24 комфорт 1018.8 1014.6
В 4 20 км н/о +20.3 +17.1 82 +24 +24 комфорт 1018.5 1014.3
В 5 20 км в посл. час дождь н/о +20.2 +16.6 80 +23 +23 комфорт 1018.1 1013.9
В 4 20 км н/о +20.2 +16.4 79 +23 +23 комфорт 1018.1 1013.9
В 5 20 км в посл. час дождь н/о +20.1 +15.9 77 +23 +23 комфорт 1017.9 1013.7 +19.6 0.8 0.8
В 4 20 км н/о +20.0 +15.6 76 +23 +23 комфорт 1018.5 1014.3
В 5 20 км слаб. морось н/о +19.7 +15.3 76 +22 +22 комфорт 1018.3 1014.1
В 4 15 км {дождь} [макс. диам. градин 0 мм] 10/10 600 м
[Sc]
+19.9 +14.9 73 +22 +22 комфорт 1018.9 1014.7
В 4 20 км н/о +20.0 +15.0 73 +22 +22 комфорт 1019.0 1014.8
В 4 20 км н/о +20.3 +14.6 70 +23 +23 комфорт 1018.8 1014.6
В 4 15 км {дождь} [макс. диам. градин 0 мм] 10/9 600 м
[Sc Ac As]
+20.3 +14.4 69 +23 +23 комфорт 1018.7 1014.5 0.0
В 3 20 км н/о +20.3 +14.2 68 +23 +23 комфорт 1017.7 1013.5
В 3 20 км в посл. час дождь н/о +20.2 +13.2 64 +23 +23 комфорт 1016.4 1012.2
В 3 20 км н/о +20.1 +13.5 66 +22 +22 комфорт 1015.5 1011.3
В 3 20 км н/о +20.1 +13.5 66 +23 +23 комфорт 1015.2 1011.0
В 2 20 км слаб. дождь н/о +19.9 +13.6 67 +23 +23 комфорт 1015.0 1010.8
В 2 20 км в посл. час морось н/о +19.7 +13.6 68 +22 +22 комфорт 1014.6 1010.4 +20.6 0.0
С 2 20 км в посл. час дождь н/о +19.0 +14.3 74 +21 +21 комфорт 1015.1 1010.9
С 2 20 км в посл. час дождь н/о +18.4 +14.9 80 +19 +19 по сезону 1015.1 1010.9
С 2 20 км н/о +18.1 +14.8 81 +19 +19 по сезону 1014.9 1010.7
З 2 20 км н/о +18.0 +14.7 81 +19 +19 по сезону 1015.2 1010.9
З 2 20 км н/о +17.8 +14.1 79 +19 +19 по сезону 1014.4 1010.1
З 2 20 км дымка н/о +17.8 +14.1 79 +18 +18 по сезону 1014.2 1009.9 0.8
З 2 20 км н/о +17.9 +14.4 80 +18 +18 по сезону 1013.4 1009.2
З 4 2000 м сильн. дождь н/о +18.3 +15.7 85 +19 +19 тепло 1014.6 1010.4
С 2 20 км в посл. час дождь н/о +17.7 +16.0 90 +18 +18 тепло 1012.8 1008.6
З 1 19 км н/о +17.7 +16.2 91 +19 +19 тепло 1012.4 1008.2
З 2 19 км н/о +17.0 +16.0 94 +18 +18 по сезону 1012.1 1007.8
З 2 20 км дымка н/о +16.8 +15.1 90 +17 +17 по сезону 1012.2 1007.9 +16.8 5 5
З 2 20 км н/о +17.2 +14.8 86 +17 +17 по сезону 1012.6 1008.3
З 1 20 км в посл. час морось н/о +17.9 +15.7 87 +20 +20 тепло 1013.0 1008.8
СВ 3 5000 м дождь [макс. диам. градин 0 мм] 10/10 600 м
[Cu med, cong As op]
+18.9 +16.7 87 +20 +20 тепло 1013.8 1009.6
Ю 2 20 км в посл. час дождь н/о +16.9 +14.5 86 +17 +17 по сезону 1014.5 1010.2
С 2 20 км н/о +18.0 +13.7 76 +19 +19 по сезону 1015.6 1011.3
СВ 1 9000 м слаб. дождь [макс. диам. градин 0 мм] 10/10 300 м
[Frnb Ns]
+17.3 +14.4 83 +18 +18 прохладно 1015.6 1011.3 13
В 1 18 км дождь н/о +17.3 +14.6 84 +18 +18 прохладно 1015.1 1010.8
С 1 19 км слаб. дождь н/о +16.8 +15.1 90 +18 +18 прохладно 1014.5 1010.2
СВ 2 16 км слаб. морось н/о +17.3 +14.8 85 +18 +18 по сезону 1014.3 1010.0
СВ 2 20 км в посл. час морось н/о +18.1 +14.0 77 +19 +19 по сезону 1014.6 1010.4
СВ 3 5000 м морось с дождем н/о +17.0 +13.7 81 +17 +17 прохладно 1015.5 1011.2
С 2 20 км в посл. час морось н/о +17.4 +12.3 72 +18 +18 по сезону 1016.0 1011.7 +18.9 15
С 3 20 км в посл. час дождь н/о +17.2 +12.7 75 +17 +17 прохладно 1016.9 1012.6
С 4 20 км н/о +17.6 +11.2 66 +17 +17 прохладно 1017.4 1013.1
С 2 20 км слаб. морось н/о +17.6 +11.4 67 +18 +18 по сезону 1018.0 1013.7
З 1 20 км в посл. час дождь н/о +17.3 +9.7 61 +19 +19 по сезону 1018.4 1014.1
С 2 20 км н/о +17.4 +9.0 58 +18 +18 по сезону 1018.8 1014.5
С 3 20 км дымка н/о +17.8 +9.7 59 +18 +18 тепло 1018.6 1014.3 0.0
З 2 20 км н/о +17.4 +10.5 64 +18 +18 тепло 1018.4 1014.1
СЗ 3 20 км в посл. час дождь н/о +17.5 +10.8 65 +17 +17 тепло 1018.4 1014.1
С 5 15 км слаб. морось н/о +17.2 +12.1 72 +17 +17 тепло 1018.8 1014.5
СЗ 3 20 км в посл. час морось н/о +17.3 +10.9 66 +17 +17 тепло 1018.4 1014.1
СЗ 3 20 км н/о +17.6 +11.4 67 +18 +18 тепло 1018.4 1014.1
С 4 20 км дымка н/о +17.8 +11.4 66 +18 +18 тепло 1018.8 1014.5 +16.8 16 16
С 5 15 км н/о +18.1 +11.6 66 +18 +18 тепло 1019.6 1015.3
С 4 20 км н/о +18.0 +11.1 64 +18 +18 тепло 1020.4 1016.1
С 4 20 км н/о +19.6 +11.1 58 +21 +21 комфорт 1021.0 1016.7
СЗ 3 20 км в посл. час дождь н/о +19.7 +12.2 62 +21 +21 комфорт 1021.8 1017.5
С 4 20 км н/о +20.6 +11.8 57 +23 +23 комфорт 1022.1 1017.9
СЗ 4 20 км дымка н/о +20.9 +11.8 56 +23 +23 комфорт 1021.9 1017.7 0.2
С 4 20 км в посл. час морось н/о +21.2 +12.1 56 +23 +23 комфорт 1021.3 1017.1
С 4 18 км слаб. морось н/о +19.8 +13.0 65 +22 +22 комфорт 1021.4 1017.1
С 5 20 км в посл. час морось н/о +19.8 +13.3 66 +21 +21 комфорт 1021.2 1016.9
С 4 17 км слаб. морось н/о +20.4 +12.9 62 +23 +23 комфорт 1021.3 1017.1
С 5 15 км дождь н/о +19.0 +12.0 64 +20 +20 тепло 1022.0 1017.7
СЗ 3 20 км в посл. час морось н/о +18.7 +11.5 63 +20 +20 тепло 1022.2 1017.9 +21.6 1
С 3 14 км слаб. морось с дождем н/о +18.7 +12.9 69 +20 +20 тепло 1022.7 1018.4
С 4 20 км н/о +19.0 +11.8 63 +20 +20 тепло 1023.1 1018.8
С 4 20 км в посл. час дождь н/о +18.5 +12.0 66 +19 +19 тепло 1023.4 1019.1
С 3 18 км н/о +18.8 +12.1 65 +20 +20 тепло 1023.6 1019.3
С 4 20 км н/о +19.0 +11.8 63 +20 +20 тепло 1023.6 1019.3
С 3 20 км н/о +18.7 +11.7 64 +20 +20 тепло 1023.7 1019.4 0.6
СЗ 4 6000 м дождь н/о +17.7 +13.4 76 +18 +18 тепло 1023.7 1019.4
С 3 20 км в посл. час морось н/о +17.8 +12.5 71 +18 +18 тепло 1023.4 1019.1
С 4 20 км в посл. час дождь н/о +18.1 +12.3 69 +18 +18 тепло 1023.0 1018.7
С 6 19 км слаб. морось н/о +18.0 +12.2 69 +18 +18 тепло 1023.1 1018.8
СЗ 3 20 км в посл. час дождь н/о +17.3 +13.6 79 +17 +17 тепло 1023.2 1018.9
Местоположение метеостанции Санта-Круз-де-Тенерифе (Канарские Острова): широта 28.45 долгота -16.25 высота над уровнем моря 36 м.
В архиве по умолчанию представлена погода в Санта-Круз-де-Тенерифе за последнюю неделю. Архивные данные за месяц целиком и за предыдущие месяцы, начиная с января 2011 года, Вы можете получить, выбрав интересующий диапазон дат из раскрывающегося списка и нажав кнопку "Найти!".
*Определитесь, кто Вы:
Внимание! Время в таблицах - всемирное. Для получения местного времени необходимо прибавить поправку, которая равна 0 ч.
Смотрите также архив погоды в соседних городах и на ближайших метеорологических станциях:
Партнеры нашего сайта:      
Пояснения к столбцам:
  • Ветер - указаны скорость ветра в м/с - средняя за 10 мин, порывы в срок и между сроками (в фигурных скобках) и направление, откуда дует ветер: С - северный,
  • СВ - северо-восточный, В - восточный, ЮВ - юго-восточный, Ю - южный, ЮЗ - юго-западный, З - западный, СЗ - северо-западный.
  • Видимость - горизонтальная дальность видимости в метрах или километрах. При видимости от 1 до 10 км при отсутствии осадков обычно наблюдается дымка, при ухудшении видимости до 1 км и менее - туман. В сухую погоду видимость может ухудшаться дымом, пылью или мглою.
  • Явления - указаны атмосферные явления, наблюдавшиеся в срок или в последний час перед сроком; фигурными скобками обозначены явления, наблюдавшиеся между сроками (за 1-3 часа до срока); квадратными скобками обозначены град или гололедные отложения с указанием их диаметра в мм.
  • Облачность - указаны через наклонную черту общая и нижняя облачность в баллах и высота нижней границы облаков в метрах; квадратными скобками обозначены формы облаков: Ci - перистые, Cs - перисто-слоистые, Cc - перисто-кучевые, Ac - высококучевые, As - высокослоистые, Sc - слоисто-кучевые, Ns - слоисто-дождевые, Cu - кучевые, Cb - кучево-дождевые. Подробнее классификацию облаков см. в Атласе облаков (PDF).
  • T - Температура воздуха - температура, измеренная на высоте 2 м над землей.
  • Td - Температура точки росы - температура, при понижении до которой содержащийся в воздухе водяной пар достигнет насыщения.
  • f - Относительная влажность воздуха - влажноcть воздуха, измеренная на высоте 2 м над землей.
  • Te - Эффективная температура - температура, которую ощущает одетый по сезону человек в тени. Характеристика душности погоды. При расчете учитывается влияние влажности воздуха и скорости ветра на теплоощущения человека.
  • Tes - Эффективная температура на солнце - температура, которую ощущает человек, с поправкой на солнечный нагрев. Характеристика знойности погоды. Зависит от высоты солнца над горизонтом, облачности и скорости ветра. Ночью, в пасмурную погоду, а также при ветре 12 м/с и более поправка равна нулю.
  • P - Атмосферное давление - приведенное к уровню моря атмосферное давление.
  • Po - Атмосферное давление - измеренное на уровне метеостанции атмосферное давление.
  • Tmin - Минимальная температура - минимум температуры воздуха на высоте 2 м над землей.
  • Tmax - Максимальная температура - максимум температуры воздуха на высоте 2 м над землей.
  • R - Количество осадков - Количество выпавших осадков за период времени, мм. При наведении курсора мыши на число - период времени, за который выпало указанное количество осадков.
  • R24 - Количество осадков - Количество выпавших осадков за 24 часа, мм.
  • S - Снежный покров - Высота снежного покрова, см. При наведении курсора мыши на число - состояние снежного покрова и степень покрытия местности в баллах.